PulseSat

PulseSat

GSAT0214 (PRN E05)

Last updated on March 19, 2019, 3:10 a.m. UTC

1 41862U 16069D   19077.27272311 -.00000014  00000-0  00000+0 0  9997
2 41862  54.5938 174.5460 0002740 269.1779  90.7958  1.70473881 14505
UTC
Height (km)
Latitude
Longitude
Inclination
Orbital Period

Next 30 passes for location: Hong Kong

Rise time Rise Azimuth (degrees) Set time Set Azimuth (degrees) Duration Max altitude (degrees)

No matching passes for this satellites

PulseSat

PulseSat is the new satellites software and hardware trackering solution by Pulsely.
Satellite Two Line Element Set source: US Air Force Space Command

Download PulseSat for iOS
© 2017 Pulsely Limited